Lakenheath RAF, United Kingdom

5:34 AM BST on April 27, 2018 (GMT +0100)
Lakenheath Air Base

Weather History for EGUL - January, 2013

Change the Weather History Date:

Thursday, January 3, 2013

  Actual Average Record
Temperature  
Mean Temperature 48 °F -  
Max Temperature 51 °F - - ()
Min Temperature 45 °F - - ()
Degree Days  
Heating Degree Days 17    
Moisture  
Dew Point 47 °F    
Average Humidity 93    
Maximum Humidity 100    
Minimum Humidity 88    
Precipitation  
Precipitation 0.00 in - - ()
Sea Level Pressure  
Sea Level Pressure 30.43 in    
Wind  
Wind Speed 8 mph ()    
Max Wind Speed 13 mph    
Max Gust Speed -    
Visibility 6.2 miles    
Events      
T = Trace of Precipitation, MM = Missing Value Source: Averaged Metar Reports

Daily Weather History Graph

Daily Weather History Graph

Search for Another Location

Airport or City:

Astronomy

Jan. 03, 2013 Rise Set
Actual Time 8:07 AM GMT 3:57 PM GMT
Civil Twilight 7:26 AM GMT 4:38 PM GMT
Nautical Twilight 6:42 AM GMT 5:22 PM GMT
Astronomical Twilight 6:01 AM GMT 6:03 PM GMT
Moon 11:11 PM GMT (1/3) 10:21 AM GMT (1/3)
Length of Visible Light 9h 11m
Length of Day
7h 49m
Waning Gibbous, 68% of the Moon is Illuminated
Jan 3
Waning Gibbous
Jan 5
Last Quarter
Jan 11
New
Jan 18
First Quarter
Jan 27
Full

Hourly Weather History & Observations

Time (GMT) Temp. Windchill Dew Point Humidity Pressure Visibility Wind Dir Wind Speed Gust Speed Precip Events Conditions
12:01 AM 48.2 °F - 46.4 °F 93% 30.25 in 6.2 mi WSW 4.6 mph - N/A   Mostly Cloudy
12:35 AM 48.2 °F - 48.2 °F 100% 30.26 in 6.2 mi SSW 4.6 mph - N/A   Overcast
12:58 AM 49.3 °F - 47.7 °F 94% 30.27 in 6.2 mi SW 10.4 mph - N/A   Overcast
1:45 AM 48.2 °F - 46.4 °F 93% 30.27 in 6.2 mi SSW 5.8 mph - N/A   Overcast
1:51 AM 48.2 °F - 46.4 °F 93% 30.27 in 6.2 mi SSW 5.8 mph - N/A   Mostly Cloudy
1:58 AM 48.2 °F - 46.9 °F 95% 30.28 in 6.2 mi SW 8.1 mph - N/A   Mostly Cloudy
2:58 AM 48.2 °F - 46.9 °F 95% 30.30 in 6.2 mi SW 6.9 mph - N/A   Overcast
3:58 AM 48.2 °F - 46.4 °F 93% 30.31 in 6.2 mi WSW 10.4 mph - N/A   Scattered Clouds
4:58 AM 47.3 °F - 45.9 °F 95% 30.32 in 6.2 mi SW 9.2 mph - N/A   Partly Cloudy
5:19 AM 46.4 °F 41.5 °F 44.6 °F 93% 30.31 in 6.2 mi SW 10.4 mph - N/A   Light Drizzle
5:28 AM 46.4 °F 41.5 °F 44.6 °F 93% 30.31 in 6.2 mi SW 10.4 mph - N/A   Partly Cloudy
5:58 AM 47.5 °F - 45.9 °F 94% 30.34 in 6.2 mi WSW 11.5 mph - 0.00 in   Scattered Clouds
6:58 AM 47.5 °F - 45.9 °F 94% 30.36 in 6.2 mi WSW 10.4 mph - N/A   Scattered Clouds
8:58 AM 47.8 °F - 46.2 °F 94% 30.41 in 6.2 mi WSW 9.2 mph - N/A   Scattered Clouds
9:13 AM 48.2 °F - 46.4 °F 93% 30.41 in 6.2 mi West 6.9 mph - N/A   Mostly Cloudy
9:15 AM 48.2 °F - 46.4 °F 93% 30.41 in 6.2 mi WSW 8.1 mph - N/A   Scattered Clouds
9:16 AM 48.2 °F - 46.4 °F 93% 30.41 in 6.2 mi WSW 8.1 mph - N/A   Mostly Cloudy
9:58 AM 48.6 °F - 46.9 °F 94% 30.43 in 6.2 mi WSW 10.4 mph - N/A   Mostly Cloudy
9:59 AM 48.2 °F - 46.4 °F 93% 30.42 in 6.2 mi WSW 10.4 mph - N/A   Scattered Clouds
10:58 AM 50.0 °F - 47.8 °F 92% 30.45 in 6.2 mi WSW 11.5 mph - N/A   Scattered Clouds
11:58 AM 51.1 °F - 48.6 °F 91% 30.45 in 6.2 mi WSW 9.2 mph - N/A   Partly Cloudy
12:58 PM 50.9 °F - 48.4 °F 91% 30.45 in 6.2 mi WSW 10.4 mph - N/A   Partly Cloudy
1:58 PM 51.1 °F - 48.2 °F 90% 30.46 in 6.2 mi WSW 10.4 mph - N/A   Partly Cloudy
2:10 PM 51.8 °F - 48.2 °F 88% 30.46 in 6.2 mi WSW 8.1 mph - N/A   Mostly Cloudy
2:25 PM 51.8 °F - 48.2 °F 88% 30.47 in 6.2 mi WSW 10.4 mph - N/A   Overcast
2:32 PM 51.8 °F - 48.2 °F 88% 30.47 in 6.2 mi WSW 9.2 mph - N/A   Overcast
2:47 PM 51.8 °F - 48.2 °F 88% 30.48 in 6.2 mi WSW 10.4 mph - N/A   Overcast
2:51 PM 51.8 °F - 48.2 °F 88% 30.48 in 6.2 mi SW 10.4 mph - N/A   Overcast
2:58 PM 51.1 °F - 48.6 °F 91% 30.49 in 6.2 mi SW 10.4 mph - N/A   Overcast
3:14 PM 50.0 °F - 48.2 °F 94% 30.47 in 6.2 mi WSW 11.5 mph - N/A   Scattered Clouds
3:43 PM 50.0 °F - 48.2 °F 94% 30.48 in 6.2 mi SW 10.4 mph - N/A   Mostly Cloudy
3:54 PM 50.0 °F - 48.2 °F 94% 30.49 in 6.2 mi SW 11.5 mph - N/A   Scattered Clouds
3:58 PM 50.2 °F - 48.0 °F 92% 30.50 in 6.2 mi SW 11.5 mph - N/A   Scattered Clouds
4:29 PM 50.0 °F - 48.2 °F 94% 30.50 in 6.2 mi SW 11.5 mph - N/A   Mostly Cloudy
4:45 PM 50.0 °F - 48.2 °F 94% 30.51 in 6.2 mi SW 10.4 mph - N/A   Scattered Clouds
4:58 PM 49.6 °F - 47.7 °F 93% 30.52 in 6.2 mi SW 12.7 mph - N/A   Partly Cloudy
5:58 PM 49.1 °F - 47.3 °F 93% 30.52 in 6.2 mi SW 10.4 mph - N/A   Mostly Cloudy
6:58 PM 48.6 °F - 46.9 °F 94% 30.53 in 6.2 mi SW 8.1 mph - N/A   Clear
7:58 PM 48.4 °F - 46.8 °F 94% 30.54 in 6.2 mi SW 9.2 mph - N/A   Partly Cloudy
8:58 PM 47.1 °F - 45.9 °F 95% 30.56 in 6.2 mi SW 4.6 mph - N/A   Clear
9:58 PM 46.6 °F - 45.1 °F 95% 30.56 in 6.2 mi SW 10.4 mph - N/A   Clear
10:58 PM 45.9 °F 40.8 °F 44.8 °F 96% 30.56 in 6.2 mi SW 10.4 mph - N/A   Clear
11:35 PM 46.4 °F 41.9 °F 44.6 °F 93% 30.55 in 6.2 mi SW 9.2 mph - N/A   Mostly Cloudy
11:57 PM 46.4 °F 41.5 °F 44.6 °F 93% 30.55 in 6.2 mi SW 10.4 mph - N/A   Scattered Clouds